| time (UTC) | temp C | wind direction | speed KPH | gust KPH | rain 1hr cm | rain 24hr cm | rain mn cm | humidity % | barometer mb |
| 20260906113012 | 22 | 320 | 0.0 | 1.6 | 0.00 | 0.00 | 0.00 | 83 | 1011.4 |
| 20260906111523 | 22 | 320 | 0.0 | 3.2 | 0.00 | 0.00 | 0.00 | 83 | 1011.4 |
| 20260906110003 | 22 | 320 | 0.0 | 3.2 | 0.00 | 0.00 | 0.00 | 83 | 1011.4 |
| 20260906104507 | 22 | 320 | 1.6 | 3.2 | 0.00 | 0.00 | 0.00 | 83 | 1011.2 |
| 20260906103010 | 22 | 320 | 0.0 | 1.6 | 0.00 | 0.00 | 0.00 | 83 | 1011.2 |
| 20260906101516 | 22 | 320 | 0.0 | 1.6 | 0.00 | 0.00 | 0.00 | 83 | 1010.9 |
| 20260906100025 | 22 | 320 | 0.0 | 0.0 | 0.00 | 0.00 | 0.00 | 83 | 1010.8 |
| 20260906094520 | 22 | 320 | 0.0 | 0.0 | 0.00 | 0.00 | 0.00 | 83 | 1010.6 |
| 20260906093017 | 22 | 320 | 0.0 | 1.6 | 0.00 | 0.00 | 0.00 | 83 | 1010.6 |
| 20260906091510 | 22 | 320 | 0.0 | 1.6 | 0.00 | 0.00 | 0.00 | 83 | 1010.3 |
| 20260906090024 | 22 | 320 | 0.0 | 3.2 | 0.00 | 0.00 | 0.00 | 84 | 1010.5 |
| 20260906084526 | 23 | 320 | 0.0 | 1.6 | 0.00 | 0.00 | 0.00 | 84 | 1010.4 |
| 20260906083005 | 23 | 309 | 0.0 | 4.8 | 0.00 | 0.00 | 0.00 | 84 | 1010.4 |
| 20260906081511 | 23 | 309 | 0.0 | 3.2 | 0.00 | 0.00 | 0.00 | 83 | 1010.7 |
| 20260906080013 | 23 | 38 | 0.0 | 3.2 | 0.00 | 0.00 | 0.00 | 83 | 1010.6 |
| 20260906074527 | 23 | 39 | 0.0 | 1.6 | 0.00 | 0.00 | 0.00 | 84 | 1010.8 |
| 20260906073027 | 23 | 39 | 0.0 | 3.2 | 0.00 | 0.00 | 0.00 | 84 | 1011.0 |
| 20260906071530 | 23 | 39 | 0.0 | 3.2 | 0.00 | 0.00 | 0.00 | 83 | 1010.9 |
| 20260906070013 | 23 | 39 | 0.0 | 1.6 | 0.00 | 0.00 | 0.00 | 83 | 1011.1 |
| 20260906064518 | 23 | 39 | 0.0 | 1.6 | 0.00 | 0.00 | 0.00 | 84 | 1011.1 |
| 20260906063023 | 23 | 39 | 0.0 | 1.6 | 0.00 | 0.00 | 0.00 | 83 | 1011.4 |
| 20260906061529 | 23 | 39 | 0.0 | 3.2 | 0.00 | 0.00 | 0.00 | 83 | 1011.3 |
| 20260906060031 | 23 | 38 | 1.6 | 4.8 | 0.00 | 0.00 | 0.00 | 83 | 1011.1 |
| 20260906054518 | 23 | 38 | 0.0 | 1.6 | 0.00 | 0.00 | 0.00 | 83 | 1011.2 |
| 20260906053019 | 23 | 38 | 0.0 | 1.6 | 0.00 | 0.00 | 0.00 | 83 | 1011.1 |
| 20260906051524 | 23 | 38 | 0.0 | 0.0 | 0.00 | 0.00 | 0.00 | 83 | 1011.6 |
| 20260906050031 | 23 | 38 | 0.0 | 3.2 | 0.00 | 0.00 | 0.00 | 83 | 1011.7 |
| 20260906044528 | 23 | 39 | 0.0 | 1.6 | 0.00 | 0.00 | 0.00 | 82 | 1011.8 |
| 20260906043015 | 24 | 39 | 0.0 | 4.8 | 0.00 | 0.00 | 0.00 | 82 | 1012.0 |
| 20260906041523 | 24 | 345 | 0.0 | 6.4 | 0.00 | 0.00 | 0.00 | 81 | 1012.1 |
| 20260906040032 | 24 | 335 | 1.6 | 4.8 | 0.00 | 0.00 | 0.00 | 82 | 1011.9 |
| 20260906034509 | 24 | 309 | 1.6 | 6.4 | 0.00 | 0.00 | 0.00 | 82 | 1012.0 |
| 20260906033013 | 24 | 317 | 3.2 | 12.9 | 0.00 | 0.00 | 0.00 | 81 | 1012.2 |
| 20260906031519 | 25 | 325 | 4.8 | 14.5 | 0.00 | 0.00 | 0.00 | 81 | 1012.1 |
| 20260906030009 | 25 | 346 | 3.2 | 6.4 | 0.00 | 0.00 | 0.00 | 81 | 1012.0 |
| 20260906024517 | 25 | 323 | 3.2 | 6.4 | 0.00 | 0.00 | 0.00 | 82 | 1012.1 |
| 20260906023018 | 25 | 317 | 0.0 | 6.4 | 0.00 | 0.00 | 0.00 | 81 | 1011.7 |
| 20260906021519 | 25 | 259 | 1.6 | 4.8 | 0.00 | 0.00 | 0.00 | 79 | 1011.2 |
| 20260906020022 | 26 | 294 | 3.2 | 6.4 | 0.00 | 0.00 | 0.00 | 77 | 1011.0 |
| 20260906014505 | 26 | 230 | 4.8 | 9.7 | 0.00 | 0.00 | 0.00 | 75 | 1010.7 |
| 20260906013020 | 25 | 344 | 6.4 | 12.9 | 0.00 | 0.00 | 0.00 | 77 | 1010.8 |
| 20260906011514 | 26 | 115 | 3.2 | 16.1 | 0.00 | 0.00 | 0.00 | 76 | 1009.1 |
| 20260906010024 | 26 | 195 | 6.4 | 9.7 | 0.00 | 0.00 | 0.00 | 73 | 1010.3 |
| 20260906004526 | 27 | 207 | 1.6 | 11.3 | 0.00 | 0.00 | 0.00 | 70 | 1011.1 |
| 20260906003004 | 27 | 267 | 1.6 | 20.9 | 0.00 | 0.00 | 0.00 | 64 | 1011.6 |
| 20260906001508 | 28 | 287 | 14.5 | 27.4 | 0.00 | 0.00 | 0.00 | 62 | 1011.8 |
| 20260906000019 | 30 | 39 | 12.9 | 19.3 | 0.00 | 0.00 | 0.00 | 64 | 1012.2 |
| 20260905234523 | 31 | 5 | 11.3 | 19.3 | 0.00 | 0.00 | 0.00 | 70 | 1011.9 |
| 20260905233027 | 31 | 219 | 1.6 | 4.8 | 0.00 | 0.00 | 0.00 | 74 | 1011.1 |
| 20260905231508 | 31 | 219 | 4.8 | 8.0 | 0.00 | 0.00 | 0.00 | 73 | 1011.3 |
| 20260905230013 | 31 | 221 | 3.2 | 14.5 | 0.00 | 0.00 | 0.00 | 72 | 1011.4 |
| 20260905224519 | 33 | 221 | 6.4 | 14.5 | 0.00 | 0.00 | 0.00 | 64 | 1010.9 |
| 20260905223022 | 33 | 219 | 3.2 | 11.3 | 0.00 | 0.00 | 0.00 | 59 | 1010.7 |
| 20260905221530 | 34 | 202 | 3.2 | 9.7 | 0.00 | 0.00 | 0.00 | 58 | 1010.6 |
| 20260905220012 | 33 | 207 | 3.2 | 11.3 | 0.00 | 0.00 | 0.00 | 58 | 1010.7 |
| 20260905214525 | 33 | 207 | 3.2 | 8.0 | 0.00 | 0.00 | 0.00 | 59 | 1010.6 |
| 20260905213019 | 34 | 180 | 8.0 | 14.5 | 0.00 | 0.00 | 0.00 | 58 | 1010.3 |
| 20260905211536 | 35 | 209 | 1.6 | 6.4 | 0.00 | 0.00 | 0.00 | 56 | 1010.2 |
| 20260905210036 | 34 | 224 | 1.6 | 14.5 | 0.00 | 0.00 | 0.00 | 57 | 1010.3 |
| 20260905204537 | 34 | 318 | 3.2 | 8.0 | 0.00 | 0.00 | 0.00 | 56 | 1010.4 |
| 20260905203016 | 33 | 219 | 4.8 | 11.3 | 0.00 | 0.00 | 0.00 | 58 | 1010.0 |
| 20260905201526 | 33 | 221 | 3.2 | 9.7 | 0.00 | 0.00 | 0.00 | 58 | 1010.1 |
| 20260905200035 | 33 | 214 | 4.8 | 12.9 | 0.00 | 0.00 | 0.00 | 59 | 1010.3 |
| 20260905194531 | 33 | 225 | 1.6 | 14.5 | 0.00 | 0.00 | 0.00 | 59 | 1010.6 |
| 20260905193031 | 33 | 217 | 1.6 | 12.9 | 0.00 | 0.00 | 0.00 | 59 | 1010.8 |
| 20260905191519 | 33 | 211 | 0.0 | 16.1 | 0.00 | 0.00 | 0.00 | 60 | 1010.8 |
| 20260905190027 | 33 | 298 | 3.2 | 11.3 | 0.00 | 0.00 | 0.00 | 61 | 1011.3 |
| 20260905184504 | 32 | 198 | 4.8 | 11.3 | 0.00 | 0.00 | 0.00 | 62 | 1011.8 |
| 20260905183001 | 32 | 259 | 6.4 | 14.5 | 0.00 | 0.00 | 0.00 | 62 | 1012.0 |
| 20260905181501 | 32 | 306 | 3.2 | 16.1 | 0.00 | 0.00 | 0.00 | 64 | 1012.1 |
| 20260905180004 | 32 | 325 | 3.2 | 14.5 | 0.00 | 0.00 | 0.00 | 67 | 1012.3 |
| 20260905174502 | 32 | 269 | 6.4 | 12.9 | 0.00 | 0.00 | 0.00 | 65 | 1012.4 |
| 20260905173003 | 32 | 273 | 8.0 | 14.5 | 0.00 | 0.00 | 0.00 | 65 | 1012.5 |
| 20260905171504 | 31 | 293 | 3.2 | 11.3 | 0.00 | 0.00 | 0.00 | 68 | 1012.7 |
| 20260905170003 | 31 | 180 | 3.2 | 9.7 | 0.00 | 0.00 | 0.00 | 68 | 1013.0 |
| 20260905164503 | 31 | 279 | 1.6 | 11.3 | 0.00 | 0.00 | 0.00 | 69 | 1013.3 |
| 20260905163006 | 31 | 268 | 4.8 | 14.5 | 0.00 | 0.00 | 0.00 | 71 | 1013.5 |
| 20260905161503 | 30 | 260 | 4.8 | 11.3 | 0.00 | 0.00 | 0.00 | 72 | 1013.7 |
| 20260905160003 | 30 | 221 | 0.0 | 8.0 | 0.00 | 0.00 | 0.00 | 74 | 1014.1 |
| 20260905154502 | 30 | 306 | 6.4 | 16.1 | 0.00 | 0.00 | 0.00 | 74 | 1014.3 |
| 20260905153004 | 29 | 350 | 3.2 | 14.5 | 0.00 | 0.00 | 0.00 | 76 | 1014.4 |
| 20260905151504 | 29 | 201 | 3.2 | 14.5 | 0.00 | 0.00 | 0.00 | 77 | 1014.5 |
| 20260905150004 | 28 | 259 | 3.2 | 8.0 | 0.00 | 0.00 | 0.00 | 78 | 1014.7 |
| 20260905144504 | 28 | 270 | 4.8 | 9.7 | 0.00 | 0.00 | 0.00 | 81 | 1014.6 |
| 20260905143005 | 28 | 271 | 8.0 | 14.5 | 0.00 | 0.00 | 0.00 | 81 | 1014.6 |
| 20260905141503 | 27 | 302 | 8.0 | 14.5 | 0.00 | 0.00 | 0.00 | 82 | 1014.4 |
| 20260905140005 | 27 | 308 | 6.4 | 17.7 | 0.00 | 0.00 | 0.00 | 82 | 1014.4 |
| 20260905134505 | 27 | 290 | 8.0 | 14.5 | 0.00 | 0.00 | 0.00 | 82 | 1014.7 |
| 20260905133004 | 27 | 274 | 4.8 | 14.5 | 0.00 | 0.00 | 0.00 | 83 | 1014.7 |
| 20260905131506 | 26 | 277 | 6.4 | 12.9 | 0.00 | 0.00 | 0.00 | 82 | 1014.8 |
| 20260905130005 | 26 | 330 | 4.8 | 12.9 | 0.00 | 0.00 | 0.00 | 80 | 1014.6 |
| 20260905124507 | 25 | 310 | 3.2 | 8.0 | 0.00 | 0.00 | 0.00 | 79 | 1014.6 |
| 20260905123015 | 25 | 300 | 1.6 | 6.4 | 0.00 | 0.00 | 0.00 | 79 | 1015.0 |
| 20260905121508 | 25 | 305 | 3.2 | 6.4 | 0.00 | 0.00 | 0.00 | 79 | 1014.3 |
| 20260905120007 | 25 | 300 | 3.2 | 6.4 | 0.00 | 0.00 | 0.00 | 79 | 1014.5 |
| 20260905114506 | 24 | 311 | 0.0 | 3.2 | 0.00 | 0.00 | 0.00 | 79 | 1014.4 |